| time (UTC) | temp C | wind direction | speed KPH | gust KPH | rain 1hr cm | rain 24hr cm | rain mn cm | humidity % | barometer mb |
| 20260506150130 | 11 | 11 | 4.8 | 12.9 | 0.00 | 2.41 | 2.41 | 90 | 1006.7 |
| 20260506145929 | 11 | 50 | 4.8 | 12.9 | 0.00 | 2.41 | 2.41 | 90 | 1006.7 |
| 20260506145728 | 11 | 5 | 3.2 | 9.7 | 0.00 | 2.41 | 2.41 | 90 | 1006.6 |
| 20260506145529 | 11 | 51 | 3.2 | 9.7 | 0.00 | 2.41 | 2.41 | 90 | 1006.6 |
| 20260506145329 | 11 | 39 | 4.8 | 9.7 | 0.00 | 2.41 | 2.41 | 90 | 1006.6 |
| 20260506145129 | 11 | 0 | 4.8 | 9.7 | 0.00 | 2.41 | 2.41 | 90 | 1006.6 |
| 20260506144929 | 11 | 44 | 3.2 | 9.7 | 0.00 | 2.41 | 2.41 | 90 | 1006.5 |
| 20260506144729 | 11 | 333 | 3.2 | 9.7 | 0.00 | 2.41 | 2.41 | 89 | 1006.5 |
| 20260506144529 | 11 | 315 | 4.8 | 11.3 | 0.00 | 2.41 | 2.41 | 89 | 1006.6 |
| 20260506144329 | 11 | 35 | 3.2 | 12.9 | 0.00 | 2.41 | 2.41 | 89 | 1006.5 |
| 20260506144129 | 11 | 58 | 3.2 | 12.9 | 0.00 | 2.41 | 2.41 | 89 | 1006.6 |
| 20260506143929 | 11 | 53 | 3.2 | 12.9 | 0.00 | 2.41 | 2.41 | 89 | 1006.6 |
| 20260506143729 | 11 | 45 | 3.2 | 12.9 | 0.00 | 2.41 | 2.41 | 89 | 1006.5 |
| 20260506143528 | 11 | 43 | 3.2 | 12.9 | 0.00 | 2.41 | 2.41 | 89 | 1006.6 |
| 20260506143329 | 11 | 15 | 3.2 | 8.0 | 0.00 | 2.41 | 2.41 | 89 | 1006.6 |
| 20260506143129 | 11 | 5 | 3.2 | 11.3 | 0.00 | 2.41 | 2.41 | 89 | 1006.6 |
| 20260506142929 | 11 | 355 | 4.8 | 11.3 | 0.00 | 2.41 | 2.41 | 89 | 1006.7 |
| 20260506142729 | 11 | 11 | 4.8 | 11.3 | 0.00 | 2.41 | 2.41 | 89 | 1006.6 |
| 20260506142527 | 11 | 14 | 4.8 | 11.3 | 0.00 | 2.41 | 2.41 | 89 | 1006.7 |
| 20260506142326 | 11 | 57 | 4.8 | 11.3 | 0.00 | 2.41 | 2.41 | 89 | 1006.6 |
| 20260506142127 | 11 | 340 | 4.8 | 9.7 | 0.00 | 2.41 | 2.41 | 89 | 1006.6 |
| 20260506141927 | 11 | 22 | 4.8 | 11.3 | 0.00 | 2.41 | 2.41 | 89 | 1006.6 |
| 20260506141726 | 11 | 355 | 4.8 | 11.3 | 0.00 | 2.41 | 2.41 | 88 | 1006.5 |
| 20260506141527 | 11 | 58 | 4.8 | 11.3 | 0.00 | 2.41 | 2.41 | 88 | 1006.5 |
| 20260506141325 | 11 | 47 | 4.8 | 11.3 | 0.00 | 2.41 | 2.41 | 88 | 1006.5 |
| 20260506141123 | 11 | 13 | 4.8 | 11.3 | 0.00 | 2.41 | 2.41 | 88 | 1006.6 |
| 20260506140921 | 11 | 290 | 3.2 | 11.3 | 0.00 | 2.41 | 2.41 | 88 | 1006.6 |
| 20260506140721 | 12 | 32 | 3.2 | 11.3 | 0.00 | 2.41 | 2.41 | 89 | 1006.6 |
| 20260506140521 | 12 | 59 | 3.2 | 11.3 | 0.00 | 2.41 | 2.41 | 89 | 1006.6 |
| 20260506140319 | 11 | 26 | 3.2 | 11.3 | 0.00 | 2.41 | 2.41 | 90 | 1006.7 |
| 20260506140119 | 11 | 38 | 4.8 | 16.1 | 0.00 | 2.41 | 2.41 | 89 | 1006.6 |
| 20260506135919 | 11 | 44 | 4.8 | 16.1 | 0.00 | 2.41 | 2.41 | 89 | 1006.5 |
| 20260506135718 | 11 | 65 | 4.8 | 16.1 | 0.00 | 2.41 | 2.41 | 89 | 1006.6 |
| 20260506135523 | 11 | 45 | 4.8 | 16.1 | 0.00 | 2.41 | 2.41 | 89 | 1006.6 |
| 20260506135321 | 11 | 50 | 4.8 | 16.1 | 0.00 | 2.41 | 2.41 | 89 | 1006.6 |
| 20260506135120 | 11 | 73 | 4.8 | 16.1 | 0.00 | 2.41 | 2.41 | 89 | 1006.6 |
| 20260506134917 | 11 | 55 | 3.2 | 8.0 | 0.00 | 2.41 | 2.41 | 90 | 1006.6 |
| 20260506134716 | 11 | 96 | 3.2 | 8.0 | 0.00 | 2.41 | 2.41 | 90 | 1006.6 |
| 20260506134516 | 11 | 17 | 3.2 | 8.0 | 0.00 | 2.41 | 2.41 | 90 | 1006.5 |
| 20260506134317 | 11 | 342 | 3.2 | 8.0 | 0.00 | 2.41 | 2.41 | 90 | 1006.5 |
| 20260506133510 | 11 | 0 | 3.2 | 9.7 | 0.00 | 2.41 | 2.41 | 91 | 1006.7 |
| 20260506133310 | 11 | 47 | 3.2 | 9.7 | 0.00 | 2.41 | 2.41 | 91 | 1007.0 |
| 20260506133111 | 11 | 65 | 4.8 | 9.7 | 0.00 | 2.41 | 2.41 | 91 | 1006.7 |
| 20260506132911 | 11 | 73 | 4.8 | 16.1 | 0.00 | 2.41 | 2.41 | 91 | 1006.7 |
| 20260506132710 | 11 | 62 | 3.2 | 16.1 | 0.00 | 2.41 | 2.41 | 91 | 1006.7 |
| 20260506132508 | 11 | 55 | 3.2 | 16.1 | 0.00 | 2.41 | 2.41 | 91 | 1006.7 |
| 20260506132307 | 11 | 351 | 3.2 | 16.1 | 0.00 | 2.41 | 2.41 | 91 | 1006.7 |
| 20260506132117 | 11 | 54 | 3.2 | 16.1 | 0.00 | 2.41 | 2.41 | 91 | 1006.7 |
| 20260506131907 | 11 | 45 | 1.6 | 8.0 | 0.00 | 2.41 | 2.41 | 91 | 1006.6 |
| 20260506131707 | 11 | 28 | 3.2 | 9.7 | 0.00 | 2.41 | 2.41 | 91 | 1006.7 |
| 20260506131507 | 11 | 52 | 3.2 | 12.9 | 0.00 | 2.41 | 2.41 | 91 | 1006.7 |
| 20260506131304 | 11 | 58 | 4.8 | 14.5 | 0.00 | 2.41 | 2.41 | 91 | 1006.6 |
| 20260506131105 | 11 | 64 | 4.8 | 14.5 | 0.00 | 2.41 | 2.41 | 91 | 1006.6 |
| 20260506130905 | 11 | 77 | 4.8 | 14.5 | 0.00 | 2.41 | 2.41 | 91 | 1006.6 |
| 20260506130704 | 11 | 66 | 4.8 | 14.5 | 0.00 | 2.41 | 2.41 | 91 | 1006.7 |
| 20260506130505 | 11 | 63 | 4.8 | 14.5 | 0.00 | 2.41 | 2.41 | 91 | 1006.6 |
| 20260506130305 | 11 | 19 | 4.8 | 14.5 | 0.00 | 2.41 | 2.41 | 91 | 1006.6 |
| 20260506130105 | 11 | 99 | 6.4 | 20.9 | 0.00 | 2.41 | 2.41 | 91 | 1006.6 |
| 20260506125905 | 11 | 57 | 6.4 | 20.9 | 0.00 | 2.41 | 2.41 | 91 | 1006.6 |
| 20260506125705 | 11 | 52 | 6.4 | 20.9 | 0.00 | 2.41 | 2.41 | 91 | 1006.6 |
| 20260506125505 | 11 | 10 | 6.4 | 20.9 | 0.00 | 2.41 | 2.41 | 91 | 1006.5 |
| 20260506125306 | 11 | 63 | 6.4 | 20.9 | 0.00 | 2.41 | 2.41 | 91 | 1006.5 |
| 20260506125104 | 11 | 80 | 4.8 | 14.5 | 0.00 | 2.41 | 2.41 | 92 | 1006.4 |
| 20260506124905 | 11 | 53 | 4.8 | 14.5 | 0.00 | 2.41 | 2.41 | 92 | 1006.5 |
| 20260506124704 | 11 | 47 | 4.8 | 14.5 | 0.00 | 2.41 | 2.41 | 92 | 1006.5 |
| 20260506124505 | 11 | 22 | 4.8 | 14.5 | 0.00 | 2.41 | 2.41 | 92 | 1006.5 |
| 20260506124305 | 11 | 59 | 4.8 | 14.5 | 0.00 | 2.41 | 2.41 | 93 | 1006.5 |
| 20260506124105 | 11 | 57 | 4.8 | 14.5 | 0.00 | 2.41 | 2.41 | 92 | 1006.6 |
| 20260506123905 | 11 | 24 | 4.8 | 14.5 | 0.00 | 2.41 | 2.41 | 92 | 1006.6 |
| 20260506123704 | 11 | 56 | 3.2 | 12.9 | 0.00 | 2.41 | 2.41 | 93 | 1006.5 |
| 20260506123505 | 11 | 32 | 3.2 | 11.3 | 0.00 | 2.41 | 2.41 | 92 | 1006.5 |
| 20260506123305 | 11 | 65 | 4.8 | 14.5 | 0.00 | 2.41 | 2.41 | 92 | 1006.5 |
| 20260506123104 | 11 | 23 | 4.8 | 14.5 | 0.00 | 2.41 | 2.41 | 93 | 1006.5 |
| 20260506122904 | 11 | 45 | 3.2 | 14.5 | 0.00 | 2.41 | 2.41 | 93 | 1006.4 |
| 20260506122705 | 11 | 9 | 4.8 | 14.5 | 0.00 | 2.41 | 2.41 | 92 | 1006.5 |
| 20260506122505 | 11 | 49 | 3.2 | 14.5 | 0.00 | 2.41 | 2.41 | 93 | 1006.4 |
| 20260506122306 | 11 | 111 | 3.2 | 11.3 | 0.00 | 2.41 | 2.41 | 93 | 1006.4 |
| 20260506122117 | 11 | 355 | 3.2 | 9.7 | 0.00 | 2.41 | 2.41 | 93 | 1006.4 |
| 20260506121905 | 11 | 14 | 3.2 | 9.7 | 0.00 | 2.41 | 2.41 | 93 | 1006.4 |
| 20260506121705 | 11 | 5 | 3.2 | 14.5 | 0.00 | 2.41 | 2.41 | 93 | 1006.3 |
| 20260506121505 | 11 | 344 | 3.2 | 14.5 | 0.00 | 2.41 | 2.41 | 93 | 1006.4 |
| 20260506121305 | 11 | 342 | 3.2 | 14.5 | 0.00 | 2.41 | 2.41 | 93 | 1006.3 |
| 20260506121105 | 11 | 24 | 3.2 | 14.5 | 0.00 | 2.41 | 2.41 | 93 | 1006.4 |
| 20260506120905 | 11 | 61 | 3.2 | 14.5 | 0.00 | 2.41 | 2.41 | 93 | 1006.3 |
| 20260506120704 | 11 | 293 | 4.8 | 14.5 | 0.00 | 2.41 | 2.41 | 93 | 1006.3 |
| 20260506120518 | 11 | 33 | 4.8 | 14.5 | 0.00 | 2.41 | 2.41 | 93 | 1006.3 |
| 20260506120305 | 11 | 53 | 4.8 | 14.5 | 0.00 | 2.41 | 2.41 | 93 | 1006.3 |
| 20260506120105 | 11 | 313 | 4.8 | 14.5 | 0.00 | 2.41 | 2.41 | 93 | 1006.3 |
| 20260506115905 | 11 | 29 | 3.2 | 14.5 | 0.00 | 2.41 | 2.41 | 93 | 1006.4 |
| 20260506115705 | 11 | 306 | 3.2 | 14.5 | 0.00 | 2.41 | 2.41 | 93 | 1006.3 |
| 20260506115504 | 11 | 49 | 3.2 | 11.3 | 0.00 | 2.41 | 2.41 | 93 | 1006.3 |
| 20260506115307 | 11 | 28 | 3.2 | 11.3 | 0.00 | 2.41 | 2.41 | 93 | 1006.3 |
| 20260506115104 | 11 | 26 | 3.2 | 11.3 | 0.00 | 2.41 | 2.41 | 93 | 1006.2 |
| 20260506114904 | 11 | 36 | 3.2 | 11.3 | 0.00 | 2.41 | 2.41 | 93 | 1006.2 |
| 20260506114705 | 11 | 42 | 1.6 | 8.0 | 0.00 | 2.41 | 2.41 | 93 | 1006.2 |
| 20260506114505 | 11 | 351 | 1.6 | 8.0 | 0.00 | 2.41 | 2.41 | 93 | 1006.2 |
| 20260506114305 | 11 | 0 | 1.6 | 8.0 | 0.00 | 2.41 | 2.41 | 93 | 1006.2 |
| 20260506114105 | 11 | 40 | 1.6 | 9.7 | 0.00 | 2.41 | 2.41 | 94 | 1006.2 |
| 20260506113905 | 11 | 37 | 3.2 | 9.7 | 0.00 | 2.41 | 2.41 | 94 | 1006.1 |
| 20260506113704 | 11 | 37 | 3.2 | 9.7 | 0.00 | 2.41 | 2.41 | 94 | 1006.0 |
| 20260506113504 | 11 | 37 | 3.2 | 9.7 | 0.00 | 2.41 | 2.41 | 94 | 1006.0 |
| 20260506113305 | 11 | 5 | 3.2 | 9.7 | 0.00 | 2.41 | 2.41 | 94 | 1006.0 |
| 20260506113105 | 11 | 304 | 3.2 | 8.0 | 0.00 | 2.41 | 2.41 | 94 | 1006.1 |
| 20260506112905 | 11 | 47 | 3.2 | 8.0 | 0.00 | 2.41 | 2.41 | 94 | 1006.0 |
| 20260506112705 | 11 | 0 | 3.2 | 8.0 | 0.00 | 2.41 | 2.41 | 94 | 1005.9 |
| 20260506112504 | 11 | 331 | 3.2 | 8.0 | 0.00 | 2.41 | 2.41 | 94 | 1006.0 |
| 20260506112316 | 11 | 340 | 3.2 | 8.0 | 0.00 | 2.41 | 2.41 | 94 | 1005.9 |
| 20260506112102 | 11 | 46 | 3.2 | 8.0 | 0.00 | 2.41 | 2.41 | 94 | 1005.9 |
| 20260506111502 | 11 | 46 | 4.8 | 12.9 | 0.00 | 2.41 | 2.41 | 94 | 1006.0 |
| 20260506111301 | 11 | 42 | 4.8 | 12.9 | 0.00 | 2.41 | 2.41 | 94 | 1005.8 |
| 20260506111101 | 11 | 71 | 3.2 | 12.9 | 0.00 | 2.41 | 2.41 | 94 | 1005.7 |
| 20260506110901 | 11 | 63 | 3.2 | 12.9 | 0.00 | 2.41 | 2.41 | 94 | 1005.8 |
| 20260506110702 | 11 | 39 | 3.2 | 12.9 | 0.00 | 2.41 | 2.41 | 94 | 1005.7 |
| 20260506110457 | 11 | 65 | 3.2 | 12.9 | 0.00 | 2.41 | 2.41 | 94 | 1005.7 |
| 20260506110257 | 11 | 90 | 3.2 | 11.3 | 0.00 | 2.41 | 2.41 | 94 | 1005.8 |
| 20260506110057 | 11 | 38 | 3.2 | 11.3 | 0.00 | 2.41 | 2.41 | 94 | 1005.8 |
| 20260506105856 | 11 | 38 | 4.8 | 14.5 | 0.00 | 2.41 | 2.41 | 94 | 1005.7 |
| 20260506105657 | 11 | 38 | 4.8 | 14.5 | 0.00 | 2.41 | 2.41 | 94 | 1005.7 |
| 20260506105457 | 11 | 47 | 4.8 | 14.5 | 0.00 | 2.41 | 2.41 | 94 | 1005.7 |
| 20260506105256 | 11 | 355 | 4.8 | 14.5 | 0.00 | 2.41 | 2.41 | 94 | 1005.7 |
| 20260506105057 | 11 | 17 | 4.8 | 14.5 | 0.00 | 2.41 | 2.41 | 94 | 1005.7 |
| 20260506104857 | 11 | 17 | 4.8 | 12.9 | 0.00 | 2.41 | 2.41 | 94 | 1005.6 |
| 20260506104656 | 11 | 336 | 3.2 | 12.9 | 0.00 | 2.41 | 2.41 | 94 | 1005.7 |
| 20260506104457 | 11 | 35 | 3.2 | 12.9 | 0.00 | 2.41 | 2.41 | 94 | 1005.7 |
| 20260506104255 | 11 | 331 | 3.2 | 12.9 | 0.00 | 2.41 | 2.41 | 94 | 1005.6 |
| 20260506104054 | 11 | 0 | 3.2 | 12.9 | 0.03 | 2.41 | 2.41 | 94 | 1005.7 |
| 20260506103853 | 11 | 28 | 3.2 | 12.9 | 0.03 | 2.41 | 2.41 | 94 | 1005.6 |
| 20260506103653 | 11 | 79 | 3.2 | 12.9 | 0.03 | 2.41 | 2.41 | 94 | 1005.5 |
| 20260506103453 | 11 | 330 | 3.2 | 12.9 | 0.03 | 2.41 | 2.41 | 94 | 1005.5 |
| 20260506103252 | 11 | 355 | 3.2 | 14.5 | 0.03 | 2.41 | 2.41 | 94 | 1005.5 |
| 20260506103050 | 11 | 15 | 3.2 | 14.5 | 0.03 | 2.41 | 2.41 | 94 | 1005.5 |
| 20260506102848 | 11 | 53 | 4.8 | 14.5 | 0.03 | 2.41 | 2.41 | 94 | 1005.5 |
| 20260506102648 | 11 | 350 | 4.8 | 14.5 | 0.03 | 2.41 | 2.41 | 94 | 1005.5 |
| 20260506102449 | 11 | 42 | 4.8 | 14.5 | 0.05 | 2.41 | 2.41 | 94 | 1005.8 |
| 20260506102248 | 11 | 46 | 4.8 | 14.5 | 0.05 | 2.41 | 2.41 | 94 | 1005.4 |
| 20260506102047 | 11 | 340 | 4.8 | 14.5 | 0.05 | 2.41 | 2.41 | 94 | 1005.3 |
| 20260506101847 | 11 | 63 | 4.8 | 14.5 | 0.05 | 2.41 | 2.41 | 94 | 1005.3 |
| 20260506101646 | 11 | 34 | 3.2 | 14.5 | 0.05 | 2.41 | 2.41 | 94 | 1005.4 |
| 20260506101446 | 11 | 69 | 3.2 | 14.5 | 0.05 | 2.41 | 2.41 | 95 | 1005.4 |
| 20260506101246 | 11 | 11 | 4.8 | 11.3 | 0.08 | 2.41 | 2.41 | 95 | 1005.4 |
| 20260506101046 | 11 | 68 | 4.8 | 16.1 | 0.08 | 2.41 | 2.41 | 94 | 1005.4 |
| 20260506100846 | 11 | 5 | 4.8 | 16.1 | 0.08 | 2.41 | 2.41 | 94 | 1005.4 |
| 20260506100647 | 10 | 38 | 4.8 | 16.1 | 0.10 | 2.41 | 2.41 | 94 | 1005.3 |
| 20260506100446 | 10 | 63 | 4.8 | 16.1 | 0.10 | 2.41 | 2.41 | 94 | 1005.4 |
| 20260506100248 | 11 | 75 | 4.8 | 16.1 | 0.10 | 2.41 | 2.41 | 94 | 1005.4 |
| 20260506100047 | 11 | 41 | 4.8 | 14.5 | 0.13 | 2.41 | 2.41 | 95 | 1005.4 |
| 20260506095847 | 11 | 55 | 4.8 | 14.5 | 0.13 | 2.41 | 2.41 | 95 | 1005.3 |
| 20260506095645 | 10 | 5 | 4.8 | 14.5 | 0.15 | 2.41 | 2.41 | 95 | 1005.3 |
| 20260506095443 | 10 | 56 | 4.8 | 14.5 | 0.15 | 2.41 | 2.41 | 94 | 1005.2 |
| 20260506095241 | 10 | 20 | 3.2 | 11.3 | 0.18 | 2.41 | 2.41 | 95 | 1005.2 |
| 20260506095041 | 10 | 66 | 3.2 | 11.3 | 0.20 | 2.41 | 2.41 | 95 | 1005.2 |
| 20260506094841 | 10 | 43 | 3.2 | 8.0 | 0.23 | 2.41 | 2.41 | 94 | 1005.2 |
| 20260506094640 | 10 | 57 | 3.2 | 16.1 | 0.23 | 2.41 | 2.41 | 95 | 1005.2 |
| 20260506094441 | 10 | 24 | 3.2 | 16.1 | 0.25 | 2.41 | 2.41 | 95 | 1005.2 |
| 20260506094240 | 10 | 51 | 3.2 | 16.1 | 0.28 | 2.41 | 2.39 | 95 | 1005.2 |
| 20260506094040 | 10 | 18 | 4.8 | 16.1 | 0.28 | 2.39 | 2.39 | 94 | 1005.2 |
| 20260506093841 | 10 | 14 | 4.8 | 16.1 | 0.30 | 2.39 | 2.39 | 95 | 1005.2 |
| 20260506093642 | 10 | 11 | 3.2 | 11.3 | 0.30 | 2.39 | 2.39 | 95 | 1005.1 |
| 20260506093438 | 10 | 9 | 4.8 | 11.3 | 0.33 | 2.39 | 2.39 | 94 | 1005.1 |
| 20260506093236 | 10 | 340 | 4.8 | 9.7 | 0.33 | 2.39 | 2.39 | 95 | 1005.2 |
| 20260506093036 | 10 | 355 | 4.8 | 11.3 | 0.33 | 2.39 | 2.39 | 94 | 1005.2 |
| 20260506092836 | 10 | 319 | 4.8 | 11.3 | 0.36 | 2.39 | 2.39 | 95 | 1005.0 |
| 20260506092634 | 10 | 306 | 3.2 | 11.3 | 0.36 | 2.39 | 2.39 | 95 | 1005.1 |
| 20260506092434 | 10 | 355 | 3.2 | 11.3 | 0.36 | 2.39 | 2.39 | 95 | 1005.1 |
| 20260506092235 | 10 | 27 | 3.2 | 11.3 | 0.36 | 2.39 | 2.39 | 94 | 1005.1 |
| 20260506092036 | 10 | 32 | 3.2 | 8.0 | 0.38 | 2.39 | 2.39 | 95 | 1005.1 |
| 20260506091833 | 10 | 60 | 3.2 | 8.0 | 0.36 | 2.36 | 2.36 | 94 | 1005.1 |
| 20260506091632 | 10 | 343 | 3.2 | 8.0 | 0.38 | 2.36 | 2.36 | 95 | 1005.1 |
| 20260506091433 | 10 | 329 | 3.2 | 9.7 | 0.41 | 2.36 | 2.34 | 95 | 1005.0 |
| 20260506091034 | 10 | 33 | 3.2 | 9.7 | 0.41 | 2.34 | 2.34 | 95 | 1005.0 |
| 20260506090830 | 10 | 53 | 3.2 | 9.7 | 0.43 | 2.34 | 2.31 | 94 | 1005.0 |
| 20260506090630 | 10 | 355 | 4.8 | 14.5 | 0.43 | 2.31 | 2.31 | 94 | 1005.0 |
| 20260506090433 | 10 | 327 | 4.8 | 14.5 | 0.43 | 2.31 | 2.31 | 94 | 1005.0 |
| 20260506090231 | 10 | 44 | 4.8 | 14.5 | 0.46 | 2.31 | 2.31 | 94 | 1005.1 |
| 20260506090030 | 10 | 59 | 4.8 | 14.5 | 0.46 | 2.31 | 2.31 | 94 | 1005.0 |
| 20260506085830 | 10 | 346 | 4.8 | 14.5 | 0.46 | 2.31 | 2.29 | 94 | 1005.0 |
| 20260506085629 | 10 | 41 | 3.2 | 9.7 | 0.46 | 2.29 | 2.26 | 94 | 1005.0 |
| 20260506085431 | 10 | 16 | 3.2 | 9.7 | 0.43 | 2.26 | 2.24 | 94 | 1004.9 |
| 20260506085229 | 10 | 13 | 3.2 | 9.7 | 0.43 | 2.24 | 2.24 | 94 | 1005.0 |
| 20260506085028 | 10 | 49 | 3.2 | 9.7 | 0.43 | 2.21 | 2.21 | 94 | 1005.1 |
| 20260506084828 | 10 | 328 | 3.2 | 9.7 | 0.43 | 2.21 | 2.18 | 94 | 1005.0 |
| 20260506084628 | 10 | 35 | 3.2 | 12.9 | 0.41 | 2.18 | 2.18 | 94 | 1005.0 |
| 20260506084429 | 10 | 17 | 3.2 | 12.9 | 0.41 | 2.16 | 2.16 | 94 | 1005.0 |
| 20260506084228 | 10 | 9 | 3.2 | 12.9 | 0.41 | 2.13 | 2.13 | 94 | 1005.0 |
| 20260506084027 | 10 | 55 | 3.2 | 12.9 | 0.38 | 2.11 | 2.11 | 94 | 1005.1 |
| 20260506083822 | 10 | 350 | 3.2 | 12.9 | 0.38 | 2.11 | 2.11 | 94 | 1005.1 |
| 20260506083623 | 10 | 355 | 3.2 | 9.7 | 0.38 | 2.11 | 2.08 | 94 | 1005.0 |
| 20260506083422 | 10 | 24 | 3.2 | 12.9 | 0.38 | 2.08 | 2.08 | 94 | 1005.0 |
| 20260506083222 | 10 | 30 | 3.2 | 12.9 | 0.38 | 2.06 | 2.06 | 94 | 1005.0 |
| 20260506083022 | 10 | 355 | 4.8 | 12.9 | 0.38 | 2.06 | 2.06 | 94 | 1005.0 |
| 20260506082822 | 10 | 348 | 4.8 | 12.9 | 0.38 | 2.03 | 2.03 | 94 | 1005.0 |
| 20260506082622 | 10 | 47 | 4.8 | 12.9 | 0.38 | 2.03 | 2.03 | 94 | 1004.9 |
| 20260506082422 | 10 | 24 | 4.8 | 12.9 | 0.38 | 2.03 | 2.03 | 94 | 1005.0 |
| 20260506082222 | 10 | 11 | 3.2 | 12.9 | 0.41 | 2.03 | 2.01 | 94 | 1005.0 |
| 20260506082022 | 10 | 76 | 3.2 | 12.9 | 0.41 | 2.01 | 2.01 | 94 | 1004.9 |
| 20260506081822 | 10 | 87 | 3.2 | 12.9 | 0.38 | 1.98 | 1.98 | 94 | 1005.0 |
| 20260506081620 | 10 | 355 | 3.2 | 12.9 | 0.41 | 1.98 | 1.98 | 94 | 1005.0 |
| 20260506081420 | 10 | 15 | 4.8 | 12.9 | 0.41 | 1.96 | 1.96 | 94 | 1004.9 |
| 20260506081220 | 10 | 351 | 4.8 | 12.9 | 0.43 | 1.96 | 1.93 | 94 | 1005.0 |
| 20260506081021 | 10 | 36 | 3.2 | 9.7 | 0.41 | 1.93 | 1.93 | 94 | 1004.9 |
| 20260506080821 | 10 | 11 | 4.8 | 11.3 | 0.41 | 1.93 | 1.93 | 94 | 1005.0 |
| 20260506080618 | 10 | 23 | 3.2 | 11.3 | 0.38 | 1.91 | 1.91 | 94 | 1005.0 |
| 20260506080418 | 10 | 348 | 3.2 | 11.3 | 0.38 | 1.88 | 1.88 | 94 | 1005.0 |
| 20260506080218 | 10 | 26 | 1.6 | 11.3 | 0.36 | 1.85 | 1.85 | 94 | 1005.0 |
| 20260506073411 | 10 | 355 | 3.2 | 8.0 | 0.23 | 1.70 | 1.70 | 94 | 1004.7 |
| 20260506073207 | 10 | 329 | 3.2 | 8.0 | 0.23 | 1.68 | 1.68 | 94 | 1004.7 |
| 20260506073006 | 10 | 338 | 3.2 | 11.3 | 0.23 | 1.68 | 1.68 | 94 | 1004.7 |
| 20260506072804 | 10 | 317 | 3.2 | 11.3 | 0.20 | 1.65 | 1.65 | 94 | 1004.7 |
| 20260506072604 | 10 | 19 | 1.6 | 11.3 | 0.20 | 1.65 | 1.65 | 94 | 1004.7 |
| 20260506072405 | 10 | 71 | 1.6 | 11.3 | 0.20 | 1.65 | 1.65 | 94 | 1004.6 |
| 20260506072204 | 10 | 71 | 3.2 | 11.3 | 0.18 | 1.63 | 1.63 | 94 | 1004.6 |
| 20260506072004 | 10 | 5 | 3.2 | 19.3 | 0.15 | 1.60 | 1.60 | 94 | 1004.5 |
| 20260506071804 | 10 | 5 | 3.2 | 19.3 | 0.15 | 1.60 | 1.57 | 94 | 1004.6 |
| 20260506071605 | 10 | 21 | 4.8 | 19.3 | 0.15 | 1.57 | 1.57 | 94 | 1004.5 |
| 20260506071407 | 10 | 22 | 4.8 | 19.3 | 0.13 | 1.55 | 1.55 | 94 | 1004.5 |
| 20260506071205 | 10 | 50 | 3.2 | 19.3 | 0.13 | 1.55 | 1.55 | 94 | 1004.4 |
| 20260506071002 | 10 | 46 | 3.2 | 11.3 | 0.13 | 1.55 | 1.52 | 94 | 1004.5 |
| 20260506070801 | 10 | 54 | 3.2 | 9.7 | 0.10 | 1.52 | 1.52 | 94 | 1004.5 |
| 20260506070602 | 10 | 34 | 3.2 | 14.5 | 0.10 | 1.52 | 1.50 | 94 | 1004.4 |
| 20260506070404 | 10 | 44 | 3.2 | 14.5 | 0.08 | 1.50 | 1.50 | 94 | 1004.5 |
| 20260506070202 | 10 | 46 | 3.2 | 14.5 | 0.10 | 1.50 | 1.50 | 94 | 1004.5 |
| 20260506062358 | 10 | 28 | 3.2 | 12.9 | 0.08 | 1.45 | 1.45 | 94 | 1004.3 |
| 20260506062158 | 10 | 67 | 3.2 | 12.9 | 0.08 | 1.45 | 1.45 | 94 | 1004.3 |
| 20260506062000 | 10 | 44 | 3.2 | 12.9 | 0.08 | 1.45 | 1.45 | 94 | 1004.3 |
| 20260506061800 | 10 | 81 | 3.2 | 12.9 | 0.08 | 1.45 | 1.45 | 94 | 1004.4 |
| 20260506061601 | 10 | 65 | 4.8 | 9.7 | 0.10 | 1.45 | 1.45 | 94 | 1004.4 |
| 20260506061354 | 10 | 5 | 4.8 | 16.1 | 0.10 | 1.45 | 1.45 | 94 | 1004.4 |
| 20260506061157 | 10 | 75 | 4.8 | 16.1 | 0.08 | 1.42 | 1.42 | 94 | 1004.4 |
| 20260506060952 | 10 | 53 | 6.4 | 16.1 | 0.10 | 1.42 | 1.42 | 94 | 1004.4 |
| 20260506060752 | 10 | 77 | 4.8 | 16.1 | 0.10 | 1.42 | 1.42 | 94 | 1004.4 |
| 20260506060552 | 10 | 69 | 4.8 | 16.1 | 0.10 | 1.42 | 1.42 | 94 | 1004.4 |
| 20260506060352 | 10 | 338 | 4.8 | 14.5 | 0.10 | 1.42 | 1.42 | 94 | 1004.4 |
| 20260506060152 | 10 | 26 | 3.2 | 14.5 | 0.10 | 1.40 | 1.40 | 94 | 1004.5 |
| 20260506051340 | 10 | 55 | 1.6 | 8.0 | 0.23 | 1.37 | 1.35 | 94 | 1004.6 |
| 20260506051140 | 10 | 26 | 3.2 | 6.4 | 0.23 | 1.37 | 1.32 | 94 | 1004.6 |
| 20260506050941 | 10 | 16 | 1.6 | 6.4 | 0.23 | 1.37 | 1.32 | 94 | 1004.6 |
| 20260506050738 | 10 | 14 | 3.2 | 6.4 | 0.23 | 1.40 | 1.32 | 94 | 1004.6 |
| 20260506050537 | 10 | 5 | 3.2 | 6.4 | 0.23 | 1.40 | 1.32 | 94 | 1004.6 |
| 20260506050337 | 9 | 38 | 3.2 | 6.4 | 0.25 | 1.40 | 1.30 | 94 | 1004.6 |
| 20260506050138 | 9 | 55 | 3.2 | 8.0 | 0.25 | 1.40 | 1.30 | 94 | 1004.6 |
| 20260506044938 | 9 | 24 | 3.2 | 12.9 | 0.33 | 1.50 | 1.27 | 94 | 1004.7 |
| 20260506044738 | 9 | 30 | 3.2 | 12.9 | 0.33 | 1.52 | 1.24 | 94 | 1004.7 |
| 20260506044537 | 9 | 21 | 3.2 | 12.9 | 0.33 | 1.52 | 1.24 | 94 | 1004.8 |
| 20260506044337 | 9 | 21 | 3.2 | 12.9 | 0.33 | 1.52 | 1.24 | 94 | 1004.9 |
| 20260506044138 | 9 | 72 | 3.2 | 12.9 | 0.33 | 1.52 | 1.22 | 94 | 1004.8 |
| 20260506043941 | 9 | 51 | 4.8 | 9.7 | 0.36 | 1.55 | 1.22 | 94 | 1004.7 |
| 20260506043743 | 9 | 39 | 4.8 | 9.7 | 0.36 | 1.55 | 1.19 | 94 | 1004.9 |
| 20260506043539 | 9 | 53 | 4.8 | 12.9 | 0.38 | 1.57 | 1.17 | 94 | 1004.7 |
| 20260506043334 | 9 | 47 | 4.8 | 12.9 | 0.36 | 1.60 | 1.17 | 94 | 1004.8 |
| 20260506043133 | 9 | 5 | 4.8 | 12.9 | 0.36 | 1.60 | 1.17 | 94 | 1004.9 |
| 20260506042934 | 9 | 69 | 4.8 | 12.9 | 0.36 | 1.65 | 1.17 | 94 | 1004.9 |
| 20260506042732 | 9 | 30 | 4.8 | 12.9 | 0.38 | 1.73 | 1.14 | 94 | 1004.8 |
| 20260506042532 | 9 | 69 | 3.2 | 9.7 | 0.38 | 1.83 | 1.14 | 94 | 1004.9 |
| 20260506042330 | 9 | 22 | 3.2 | 9.7 | 0.38 | 2.01 | 1.14 | 94 | 1004.9 |
| 20260506042129 | 9 | 46 | 4.8 | 12.9 | 0.41 | 2.11 | 1.12 | 94 | 1004.9 |
| 20260506041930 | 9 | 34 | 4.8 | 12.9 | 0.43 | 2.21 | 1.12 | 94 | 1004.9 |
| 20260506041730 | 9 | 33 | 4.8 | 12.9 | 0.43 | 2.26 | 1.12 | 94 | 1004.9 |
| 20260506041530 | 9 | 80 | 4.8 | 12.9 | 0.46 | 2.36 | 1.12 | 94 | 1004.9 |
| 20260506041329 | 9 | 32 | 4.8 | 12.9 | 0.46 | 2.39 | 1.09 | 94 | 1004.9 |
| 20260506041130 | 9 | 46 | 4.8 | 9.7 | 0.48 | 2.39 | 1.09 | 94 | 1004.9 |
| 20260506040929 | 9 | 5 | 4.8 | 11.3 | 0.51 | 2.39 | 1.09 | 94 | 1004.9 |
| 20260506040729 | 9 | 30 | 3.2 | 11.3 | 0.51 | 2.39 | 1.09 | 94 | 1004.9 |
| 20260506040529 | 9 | 13 | 4.8 | 11.3 | 0.51 | 2.39 | 1.07 | 94 | 1004.9 |
| 20260506040329 | 9 | 49 | 4.8 | 11.3 | 0.51 | 2.39 | 1.04 | 94 | 1005.0 |
| 20260506035933 | 9 | 42 | 4.8 | 14.5 | 0.53 | 2.39 | 1.02 | 94 | 1005.0 |
| 20260506035734 | 9 | 22 | 4.8 | 14.5 | 0.51 | 2.39 | 0.99 | 94 | 1004.9 |
| 20260506035529 | 9 | 42 | 4.8 | 14.5 | 0.51 | 2.39 | 0.99 | 94 | 1005.0 |
| 20260506035329 | 9 | 24 | 4.8 | 14.5 | 0.51 | 2.36 | 0.97 | 94 | 1005.0 |
| 20260506035130 | 9 | 0 | 4.8 | 14.5 | 0.51 | 2.34 | 0.94 | 94 | 1004.9 |
| 20260506034929 | 9 | 0 | 3.2 | 9.7 | 0.51 | 2.36 | 0.91 | 94 | 1004.9 |
| 20260506034728 | 9 | 44 | 3.2 | 9.7 | 0.51 | 2.34 | 0.91 | 94 | 1005.0 |
| 20260506034525 | 9 | 38 | 3.2 | 9.7 | 0.51 | 2.34 | 0.89 | 94 | 1005.0 |
| 20260506034326 | 9 | 13 | 3.2 | 9.7 | 0.51 | 2.34 | 0.89 | 94 | 1005.1 |
| 20260506034126 | 9 | 38 | 3.2 | 9.7 | 0.51 | 2.34 | 0.86 | 94 | 1005.1 |
| 20260506033925 | 9 | 61 | 3.2 | 9.7 | 0.51 | 2.34 | 0.84 | 94 | 1005.1 |
| 20260506033724 | 9 | 350 | 3.2 | 9.7 | 0.51 | 2.34 | 0.84 | 94 | 1005.1 |
| 20260506033524 | 9 | 0 | 3.2 | 9.7 | 0.51 | 2.36 | 0.81 | 93 | 1005.2 |
| 20260506033323 | 9 | 30 | 3.2 | 9.7 | 0.51 | 2.39 | 0.79 | 93 | 1005.2 |
| 20260506033124 | 9 | 34 | 3.2 | 8.0 | 0.51 | 2.39 | 0.79 | 93 | 1005.3 |
| 20260506032923 | 9 | 10 | 3.2 | 8.0 | 0.48 | 2.46 | 0.79 | 93 | 1005.2 |
| 20260506032723 | 9 | 34 | 1.6 | 8.0 | 0.51 | 2.49 | 0.79 | 93 | 1005.3 |
| 20260506032524 | 9 | 46 | 3.2 | 8.0 | 0.48 | 2.54 | 0.76 | 93 | 1005.4 |
| 20260506032320 | 9 | 28 | 3.2 | 8.0 | 0.48 | 2.54 | 0.74 | 93 | 1005.3 |
| 20260506032119 | 9 | 68 | 3.2 | 8.0 | 0.46 | 2.54 | 0.71 | 93 | 1005.4 |
| 20260506031920 | 9 | 9 | 3.2 | 8.0 | 0.46 | 2.54 | 0.71 | 93 | 1005.3 |
| 20260506031719 | 9 | 24 | 3.2 | 8.0 | 0.46 | 2.54 | 0.69 | 93 | 1005.5 |
| 20260506031520 | 9 | 63 | 3.2 | 8.0 | 0.43 | 2.51 | 0.66 | 93 | 1005.5 |
| 20260506031320 | 9 | 346 | 3.2 | 8.0 | 0.43 | 2.51 | 0.64 | 93 | 1005.5 |
| 20260506031117 | 9 | 37 | 3.2 | 8.0 | 0.43 | 2.49 | 0.61 | 93 | 1005.5 |
| 20260506030918 | 9 | 17 | 3.2 | 8.0 | 0.41 | 2.49 | 0.61 | 93 | 1005.5 |
| 20260506030718 | 9 | 59 | 1.6 | 6.4 | 0.41 | 2.49 | 0.56 | 93 | 1005.5 |
| 20260506030518 | 9 | 22 | 3.2 | 8.0 | 0.38 | 2.49 | 0.53 | 93 | 1005.5 |
| 20260506030318 | 9 | 20 | 3.2 | 8.0 | 0.33 | 2.49 | 0.51 | 93 | 1005.6 |
| 20260506030118 | 9 | 5 | 3.2 | 8.0 | 0.33 | 2.46 | 0.51 | 93 | 1005.5 |
| 20260506025918 | 9 | 342 | 3.2 | 8.0 | 0.33 | 2.46 | 0.48 | 93 | 1005.5 |
| 20260506025718 | 9 | 55 | 3.2 | 8.0 | 0.33 | 2.46 | 0.46 | 93 | 1005.5 |
| 20260506025518 | 9 | 5 | 3.2 | 8.0 | 0.33 | 2.44 | 0.46 | 93 | 1005.5 |
| 20260506025317 | 9 | 355 | 1.6 | 8.0 | 0.30 | 2.41 | 0.43 | 93 | 1005.5 |
| 20260506025117 | 9 | 55 | 1.6 | 8.0 | 0.33 | 2.41 | 0.43 | 93 | 1005.5 |
| 20260506024918 | 9 | 5 | 1.6 | 8.0 | 0.30 | 2.39 | 0.43 | 93 | 1005.5 |
| 20260506024717 | 9 | 26 | 1.6 | 8.0 | 0.28 | 2.39 | 0.41 | 93 | 1005.5 |
| 20260506024517 | 9 | 329 | 3.2 | 8.0 | 0.30 | 2.39 | 0.38 | 93 | 1005.5 |
| 20260506024317 | 9 | 23 | 3.2 | 9.7 | 0.28 | 2.36 | 0.38 | 93 | 1005.5 |
| 20260506024117 | 9 | 34 | 3.2 | 9.7 | 0.25 | 2.34 | 0.36 | 93 | 1005.6 |
| 20260506023919 | 9 | 340 | 1.6 | 9.7 | 0.25 | 2.31 | 0.33 | 93 | 1005.7 |
| 20260506023720 | 9 | 22 | 1.6 | 9.7 | 0.25 | 2.31 | 0.33 | 93 | 1005.6 |
| 20260506023519 | 9 | 76 | 3.2 | 9.7 | 0.23 | 2.31 | 0.33 | 93 | 1005.7 |
| 20260506023319 | 9 | 34 | 3.2 | 8.0 | 0.23 | 2.31 | 0.30 | 93 | 1005.7 |
| 20260506023118 | 9 | 54 | 3.2 | 11.3 | 0.23 | 2.29 | 0.30 | 93 | 1005.7 |
| 20260506022919 | 9 | 9 | 3.2 | 11.3 | 0.23 | 2.29 | 0.28 | 93 | 1005.7 |
| 20260506022719 | 9 | 49 | 3.2 | 11.3 | 0.23 | 2.26 | 0.28 | 93 | 1005.7 |
| 20260506022519 | 9 | 342 | 3.2 | 11.3 | 0.23 | 2.26 | 0.25 | 93 | 1005.7 |
| 20260506022319 | 9 | 20 | 3.2 | 11.3 | 0.20 | 2.24 | 0.25 | 93 | 1005.7 |
| 20260506022119 | 9 | 25 | 1.6 | 9.7 | 0.18 | 2.21 | 0.23 | 93 | 1005.8 |
| 20260506021917 | 9 | 20 | 3.2 | 11.3 | 0.20 | 2.21 | 0.23 | 93 | 1005.8 |
| 20260506021718 | 9 | 20 | 3.2 | 11.3 | 0.18 | 2.21 | 0.23 | 93 | 1005.8 |
| 20260506021518 | 9 | 0 | 3.2 | 11.3 | 0.18 | 2.21 | 0.23 | 93 | 1005.8 |
| 20260506021317 | 9 | 0 | 3.2 | 11.3 | 0.18 | 2.21 | 0.20 | 93 | 1005.8 |
| 20260506021118 | 9 | 19 | 3.2 | 11.3 | 0.15 | 2.18 | 0.20 | 93 | 1005.8 |
| 20260506020917 | 9 | 10 | 3.2 | 8.0 | 0.15 | 2.18 | 0.20 | 93 | 1005.8 |
| 20260506020718 | 9 | 11 | 3.2 | 6.4 | 0.15 | 2.16 | 0.18 | 93 | 1005.9 |
| 20260506020517 | 9 | 53 | 3.2 | 6.4 | 0.15 | 2.16 | 0.18 | 93 | 1005.8 |
| 20260506020318 | 9 | 0 | 3.2 | 8.0 | 0.15 | 2.16 | 0.18 | 93 | 1005.9 |
| 20260506020117 | 9 | 15 | 3.2 | 8.0 | 0.15 | 2.13 | 0.15 | 93 | 1005.9 |
| 20260506015917 | 9 | 323 | 3.2 | 8.0 | 0.15 | 2.13 | 0.15 | 93 | 1005.9 |
| 20260506015717 | 9 | 51 | 3.2 | 8.0 | 0.15 | 2.13 | 0.15 | 93 | 1005.9 |
| 20260506015518 | 9 | 23 | 3.2 | 8.0 | 0.13 | 2.11 | 0.15 | 93 | 1006.0 |
| 20260506015314 | 9 | 90 | 3.2 | 8.0 | 0.13 | 2.11 | 0.13 | 93 | 1006.0 |
| 20260506015114 | 9 | 18 | 3.2 | 8.0 | 0.10 | 2.11 | 0.13 | 93 | 1006.1 |
| 20260506014914 | 9 | 23 | 3.2 | 8.0 | 0.10 | 2.11 | 0.13 | 93 | 1006.0 |
| 20260506014714 | 9 | 46 | 3.2 | 8.0 | 0.10 | 2.11 | 0.10 | 93 | 1006.0 |
| 20260506014513 | 9 | 46 | 3.2 | 8.0 | 0.08 | 2.08 | 0.10 | 93 | 1006.0 |
| 20260506014314 | 9 | 16 | 3.2 | 8.0 | 0.10 | 2.08 | 0.10 | 92 | 1006.0 |
| 20260506014114 | 9 | 28 | 1.6 | 8.0 | 0.10 | 2.08 | 0.10 | 92 | 1006.0 |
| 20260506013911 | 10 | 44 | 1.6 | 8.0 | 0.08 | 2.06 | 0.08 | 92 | 1006.0 |
| 20260506013712 | 10 | 42 | 3.2 | 8.0 | 0.08 | 2.06 | 0.08 | 92 | 1006.0 |
| 20260506013511 | 9 | 92 | 3.2 | 8.0 | 0.08 | 2.06 | 0.08 | 92 | 1006.1 |
| 20260506013312 | 9 | 23 | 3.2 | 8.0 | 0.08 | 2.06 | 0.08 | 92 | 1006.1 |
| 20260506013111 | 10 | 29 | 1.6 | 8.0 | 0.05 | 2.03 | 0.05 | 92 | 1006.1 |
| 20260506012912 | 10 | 46 | 3.2 | 8.0 | 0.05 | 2.03 | 0.05 | 92 | 1006.2 |
| 20260506012712 | 10 | 72 | 3.2 | 8.0 | 0.05 | 2.03 | 0.05 | 92 | 1006.1 |
| 20260506012508 | 10 | 18 | 3.2 | 8.0 | 0.05 | 2.03 | 0.05 | 92 | 1006.1 |
| 20260506012309 | 10 | 5 | 3.2 | 8.0 | 0.05 | 2.03 | 0.05 | 92 | 1006.2 |
| 20260506012109 | 10 | 37 | 3.2 | 9.7 | 0.05 | 2.03 | 0.05 | 92 | 1006.2 |
| 20260506011908 | 10 | 35 | 3.2 | 9.7 | 0.05 | 2.03 | 0.05 | 92 | 1006.3 |
| 20260506011704 | 10 | 30 | 3.2 | 9.7 | 0.05 | 2.03 | 0.05 | 92 | 1006.4 |
| 20260506011504 | 10 | 49 | 3.2 | 9.7 | 0.05 | 2.03 | 0.05 | 92 | 1006.3 |
| 20260506011259 | 10 | 32 | 3.2 | 9.7 | 0.05 | 2.03 | 0.05 | 92 | 1006.4 |
| 20260506011100 | 10 | 28 | 3.2 | 8.0 | 0.05 | 2.03 | 0.05 | 92 | 1006.4 |
| 20260506010859 | 10 | 74 | 1.6 | 6.4 | 0.05 | 2.03 | 0.05 | 92 | 1006.4 |
| 20260506010700 | 10 | 13 | 3.2 | 11.3 | 0.05 | 2.03 | 0.05 | 92 | 1006.4 |
| 20260506010459 | 10 | 15 | 3.2 | 11.3 | 0.03 | 2.01 | 0.03 | 92 | 1006.5 |
| 20260506010257 | 10 | 10 | 3.2 | 11.3 | 0.03 | 2.01 | 0.03 | 92 | 1006.4 |
| 20260506010057 | 10 | 32 | 3.2 | 11.3 | 0.03 | 2.01 | 0.03 | 92 | 1006.5 |
| 20260506005857 | 10 | 29 | 4.8 | 11.3 | 0.03 | 2.01 | 0.03 | 92 | 1006.5 |
| 20260506005657 | 10 | 328 | 3.2 | 9.7 | 0.03 | 2.01 | 0.03 | 92 | 1006.6 |
| 20260506005456 | 10 | 44 | 3.2 | 9.7 | 0.03 | 2.01 | 0.03 | 92 | 1006.5 |
| 20260506005255 | 10 | 46 | 3.2 | 9.7 | 0.03 | 2.01 | 0.03 | 92 | 1006.5 |
| 20260506005056 | 10 | 37 | 3.2 | 9.7 | 0.03 | 2.01 | 0.03 | 92 | 1006.6 |
| 20260506004855 | 10 | 70 | 3.2 | 9.7 | 0.03 | 2.01 | 0.03 | 92 | 1006.6 |
| 20260506004656 | 10 | 17 | 3.2 | 9.7 | 0.03 | 2.01 | 0.03 | 92 | 1006.6 |
| 20260506004455 | 10 | 5 | 4.8 | 9.7 | 0.03 | 2.01 | 0.00 | 92 | 1006.5 |
| 20260506004256 | 10 | 22 | 3.2 | 9.7 | 0.00 | 1.98 | 0.00 | 92 | 1006.6 |
| 20260506004055 | 10 | 27 | 3.2 | 9.7 | 0.00 | 1.98 | 0.00 | 92 | 1006.6 |
| 20260506003854 | 10 | 59 | 3.2 | 9.7 | 0.00 | 1.98 | 0.00 | 92 | 1006.6 |
| 20260506003653 | 10 | 5 | 4.8 | 9.7 | 0.00 | 1.98 | 0.00 | 92 | 1006.7 |
| 20260506003453 | 10 | 94 | 3.2 | 9.7 | 0.00 | 1.98 | 0.00 | 92 | 1006.8 |
| 20260506003250 | 10 | 72 | 4.8 | 9.7 | 0.00 | 1.98 | 0.00 | 92 | 1006.7 |
| 20260506003047 | 10 | 71 | 4.8 | 9.7 | 0.00 | 1.98 | 0.00 | 92 | 1006.7 |
| 20260506002848 | 10 | 47 | 4.8 | 9.7 | 0.00 | 1.98 | 0.00 | 92 | 1006.7 |
| 20260506002648 | 10 | 21 | 4.8 | 9.7 | 0.00 | 1.98 | 0.00 | 92 | 1006.7 |
| 20260506002447 | 10 | 46 | 4.8 | 9.7 | 0.00 | 1.98 | 0.00 | 92 | 1006.8 |
| 20260506002247 | 10 | 96 | 4.8 | 9.7 | 0.00 | 1.98 | 0.00 | 92 | 1006.9 |
| 20260506002045 | 10 | 63 | 3.2 | 9.7 | 0.00 | 1.98 | 0.00 | 92 | 1006.9 |
| 20260506001846 | 10 | 62 | 3.2 | 9.7 | 0.00 | 1.98 | 0.00 | 92 | 1006.9 |
| 20260506001645 | 10 | 46 | 3.2 | 11.3 | 0.00 | 1.98 | 0.00 | 92 | 1006.9 |
| 20260506001443 | 10 | 41 | 3.2 | 11.3 | 0.00 | 1.98 | 0.00 | 92 | 1006.9 |
| 20260506001241 | 10 | 35 | 3.2 | 11.3 | 0.00 | 1.98 | 0.00 | 92 | 1007.0 |
| 20260506001035 | 10 | 54 | 3.2 | 11.3 | 0.00 | 1.98 | 0.00 | 92 | 1007.0 |
| 20260506000836 | 10 | 34 | 3.2 | 11.3 | 0.00 | 1.98 | 0.00 | 92 | 1007.0 |
| 20260506000636 | 10 | 53 | 3.2 | 11.3 | 0.00 | 1.98 | 0.00 | 92 | 1007.1 |
| 20260506000433 | 10 | 43 | 3.2 | 11.3 | 0.00 | 1.98 | 0.00 | 92 | 1007.0 |
| 20260506000234 | 10 | 46 | 4.8 | 11.3 | 0.00 | 1.98 | 0.00 | 92 | 1007.2 |
| 20260506000034 | 10 | 45 | 4.8 | 9.7 | 0.00 | 1.98 | 0.00 | 92 | 1007.1 |
| 20260505235833 | 10 | 32 | 4.8 | 9.7 | 0.00 | 1.98 | 0.00 | 92 | 1007.1 |
| 20260505235631 | 10 | 42 | 4.8 | 12.9 | 0.00 | 1.98 | 0.00 | 92 | 1007.2 |
| 20260505235431 | 10 | 44 | 4.8 | 12.9 | 0.00 | 1.98 | 0.00 | 92 | 1007.0 |
| 20260505235231 | 10 | 53 | 4.8 | 12.9 | 0.00 | 1.98 | 0.00 | 92 | 1007.2 |
| 20260505235032 | 10 | 27 | 4.8 | 14.5 | 0.00 | 1.98 | 0.00 | 92 | 1007.2 |
| 20260505234832 | 10 | 26 | 4.8 | 16.1 | 0.00 | 1.98 | 0.00 | 92 | 1007.1 |
| 20260505234631 | 10 | 40 | 4.8 | 16.1 | 0.00 | 1.98 | 0.00 | 92 | 1007.1 |
| 20260505234432 | 10 | 59 | 4.8 | 16.1 | 0.00 | 1.98 | 0.00 | 92 | 1007.2 |
| 20260505234230 | 10 | 49 | 3.2 | 16.1 | 0.00 | 1.98 | 0.00 | 92 | 1007.2 |
| 20260505234031 | 10 | 30 | 3.2 | 16.1 | 0.00 | 1.98 | 0.00 | 92 | 1007.2 |
| 20260505233831 | 10 | 336 | 3.2 | 9.7 | 0.00 | 1.98 | 0.00 | 92 | 1007.2 |
| 20260505233627 | 10 | 325 | 3.2 | 9.7 | 0.00 | 1.98 | 0.00 | 92 | 1007.2 |
| 20260505233427 | 10 | 9 | 3.2 | 11.3 | 0.00 | 1.98 | 0.00 | 92 | 1007.2 |
| 20260505233227 | 10 | 57 | 3.2 | 11.3 | 0.00 | 1.98 | 0.00 | 92 | 1007.1 |
| 20260505233028 | 10 | 59 | 3.2 | 11.3 | 0.00 | 1.98 | 0.00 | 92 | 1007.1 |
| 20260505232826 | 10 | 24 | 3.2 | 11.3 | 0.00 | 1.98 | 0.00 | 92 | 1007.2 |
| 20260505232626 | 10 | 55 | 3.2 | 11.3 | 0.00 | 1.98 | 0.00 | 92 | 1007.2 |
| 20260505232425 | 10 | 53 | 3.2 | 12.9 | 0.00 | 1.98 | 0.00 | 92 | 1007.3 |
| 20260505232225 | 10 | 34 | 3.2 | 12.9 | 0.00 | 1.98 | 0.00 | 92 | 1007.3 |
| 20260505232025 | 10 | 34 | 4.8 | 12.9 | 0.00 | 1.98 | 0.00 | 92 | 1007.4 |
| 20260505231825 | 10 | 65 | 4.8 | 14.5 | 0.00 | 1.98 | 0.00 | 92 | 1007.5 |
| 20260505231624 | 10 | 57 | 4.8 | 14.5 | 0.00 | 1.98 | 0.00 | 92 | 1007.4 |
| 20260505231423 | 10 | 73 | 3.2 | 14.5 | 0.00 | 1.98 | 0.00 | 92 | 1007.4 |
| 20260505231223 | 10 | 29 | 3.2 | 14.5 | 0.00 | 1.98 | 0.00 | 92 | 1007.5 |
| 20260505231024 | 10 | 82 | 3.2 | 14.5 | 0.00 | 1.98 | 0.00 | 92 | 1007.4 |
| 20260505230823 | 10 | 26 | 3.2 | 14.5 | 0.00 | 1.98 | 0.00 | 92 | 1007.4 |
| 20260505230623 | 10 | 19 | 3.2 | 14.5 | 0.00 | 1.98 | 0.00 | 92 | 1007.4 |
| 20260505230422 | 10 | 15 | 4.8 | 14.5 | 0.00 | 1.98 | 0.00 | 92 | 1007.5 |
| 20260505230222 | 10 | 33 | 3.2 | 14.5 | 0.00 | 1.98 | 0.00 | 92 | 1007.5 |
| 20260505230021 | 10 | 53 | 3.2 | 14.5 | 0.00 | 1.98 | 0.00 | 92 | 1007.5 |
| 20260505225821 | 10 | 5 | 3.2 | 14.5 | 0.00 | 1.98 | 0.00 | 92 | 1007.5 |
| 20260505225619 | 10 | 25 | 4.8 | 14.5 | 0.00 | 1.98 | 0.00 | 92 | 1007.4 |
| 20260505225419 | 10 | 17 | 4.8 | 16.1 | 0.00 | 1.98 | 0.00 | 92 | 1007.6 |
| 20260505225214 | 10 | 42 | 4.8 | 16.1 | 0.00 | 1.98 | 0.00 | 92 | 1007.6 |
| 20260505225013 | 10 | 64 | 4.8 | 16.1 | 0.00 | 1.98 | 0.00 | 92 | 1007.7 |
| 20260505224813 | 10 | 62 | 4.8 | 16.1 | 0.00 | 1.98 | 0.00 | 92 | 1007.7 |
| 20260505224614 | 10 | 344 | 6.4 | 16.1 | 0.00 | 1.98 | 0.00 | 92 | 1007.6 |
| 20260505224413 | 10 | 46 | 6.4 | 14.5 | 0.00 | 1.98 | 0.00 | 92 | 1007.6 |
| 20260505224213 | 10 | 32 | 4.8 | 14.5 | 0.00 | 1.98 | 0.00 | 92 | 1007.7 |
| 20260505224014 | 10 | 355 | 6.4 | 14.5 | 0.00 | 1.98 | 0.00 | 92 | 1007.6 |
| 20260505223814 | 10 | 351 | 6.4 | 14.5 | 0.00 | 1.98 | 0.00 | 92 | 1007.6 |
| 20260505223614 | 10 | 71 | 4.8 | 14.5 | 0.00 | 1.98 | 0.00 | 92 | 1007.6 |
| 20260505223415 | 10 | 48 | 4.8 | 14.5 | 0.00 | 1.98 | 0.00 | 92 | 1007.6 |
| 20260505223214 | 10 | 42 | 4.8 | 14.5 | 0.00 | 1.98 | 0.00 | 92 | 1007.6 |
| 20260505223008 | 10 | 30 | 4.8 | 14.5 | 0.00 | 1.98 | 0.00 | 92 | 1007.6 |
| 20260505222809 | 10 | 57 | 4.8 | 14.5 | 0.00 | 1.98 | 0.00 | 92 | 1007.7 |
| 20260505222607 | 10 | 51 | 4.8 | 9.7 | 0.00 | 1.98 | 0.00 | 92 | 1007.6 |
| 20260505222407 | 10 | 349 | 4.8 | 9.7 | 0.00 | 1.98 | 0.00 | 92 | 1007.7 |
| 20260505222207 | 10 | 9 | 4.8 | 9.7 | 0.00 | 1.98 | 0.00 | 92 | 1007.7 |
| 20260505222007 | 10 | 350 | 4.8 | 9.7 | 0.00 | 1.98 | 0.00 | 92 | 1007.7 |
| 20260505221807 | 10 | 78 | 3.2 | 9.7 | 0.00 | 1.98 | 0.00 | 92 | 1007.7 |
| 20260505221607 | 10 | 5 | 4.8 | 11.3 | 0.00 | 1.98 | 0.00 | 92 | 1007.7 |
| 20260505221407 | 10 | 36 | 4.8 | 11.3 | 0.00 | 1.98 | 0.00 | 92 | 1007.8 |
| 20260505221207 | 11 | 28 | 4.8 | 11.3 | 0.00 | 1.98 | 0.00 | 92 | 1007.6 |
| 20260505221006 | 11 | 344 | 4.8 | 12.9 | 0.00 | 1.98 | 0.00 | 92 | 1007.7 |
| 20260505220803 | 11 | 50 | 4.8 | 12.9 | 0.00 | 1.98 | 0.00 | 92 | 1007.7 |
| 20260505220607 | 11 | 57 | 4.8 | 12.9 | 0.00 | 1.98 | 0.00 | 92 | 1007.7 |
| 20260505220403 | 11 | 74 | 4.8 | 12.9 | 0.00 | 1.98 | 0.00 | 92 | 1007.6 |
| 20260505220203 | 11 | 85 | 4.8 | 12.9 | 0.00 | 1.98 | 0.00 | 92 | 1007.7 |
| 20260505220001 | 11 | 39 | 4.8 | 14.5 | 0.00 | 1.98 | 0.00 | 92 | 1007.8 |
| 20260505215802 | 11 | 20 | 4.8 | 14.5 | 0.00 | 1.98 | 1.98 | 92 | 1007.8 |
| 20260505215601 | 11 | 77 | 4.8 | 14.5 | 0.00 | 1.98 | 1.98 | 92 | 1007.9 |
| 20260505215402 | 11 | 34 | 3.2 | 14.5 | 0.00 | 1.98 | 1.98 | 92 | 1007.8 |
| 20260505215202 | 11 | 59 | 3.2 | 14.5 | 0.00 | 1.98 | 1.98 | 92 | 1007.8 |
| 20260505215002 | 11 | 44 | 3.2 | 8.0 | 0.00 | 1.98 | 1.98 | 92 | 1007.7 |
| 20260505214802 | 11 | 18 | 3.2 | 8.0 | 0.00 | 1.98 | 1.98 | 92 | 1007.7 |
| 20260505214602 | 11 | 50 | 3.2 | 14.5 | 0.00 | 1.98 | 1.98 | 92 | 1007.7 |
| 20260505214402 | 11 | 48 | 4.8 | 14.5 | 0.00 | 1.98 | 1.98 | 92 | 1007.7 |
| 20260505214201 | 11 | 69 | 4.8 | 14.5 | 0.00 | 1.98 | 1.98 | 92 | 1007.7 |
| 20260505214002 | 11 | 28 | 4.8 | 14.5 | 0.00 | 1.98 | 1.98 | 92 | 1007.7 |
| 20260505213804 | 11 | 86 | 4.8 | 17.7 | 0.00 | 1.98 | 1.98 | 92 | 1007.8 |
| 20260505213603 | 11 | 59 | 4.8 | 17.7 | 0.00 | 1.98 | 1.98 | 92 | 1007.8 |
| 20260505213404 | 11 | 40 | 4.8 | 17.7 | 0.00 | 1.98 | 1.98 | 91 | 1007.8 |
| 20260505213203 | 11 | 78 | 4.8 | 17.7 | 0.00 | 1.98 | 1.98 | 91 | 1008.0 |
| 20260505213004 | 11 | 37 | 4.8 | 17.7 | 0.00 | 1.98 | 1.98 | 91 | 1008.0 |
| 20260505212803 | 11 | 69 | 3.2 | 12.9 | 0.00 | 1.98 | 1.98 | 91 | 1008.0 |
| 20260505212603 | 11 | 350 | 4.8 | 12.9 | 0.00 | 1.98 | 1.98 | 91 | 1008.0 |
| 20260505212403 | 11 | 67 | 4.8 | 14.5 | 0.00 | 1.98 | 1.98 | 91 | 1008.0 |
| 20260505212203 | 11 | 15 | 4.8 | 14.5 | 0.00 | 1.98 | 1.98 | 91 | 1008.0 |
| 20260505212002 | 11 | 336 | 4.8 | 14.5 | 0.00 | 1.98 | 1.98 | 91 | 1008.0 |
| 20260505211802 | 11 | 31 | 4.8 | 14.5 | 0.00 | 1.98 | 1.98 | 91 | 1008.0 |
| 20260505211602 | 11 | 46 | 4.8 | 14.5 | 0.00 | 1.98 | 1.98 | 91 | 1008.0 |
| 20260505211403 | 11 | 332 | 4.8 | 11.3 | 0.00 | 1.98 | 1.98 | 91 | 1008.0 |
| 20260505211202 | 11 | 21 | 4.8 | 12.9 | 0.00 | 1.98 | 1.98 | 91 | 1008.0 |
| 20260505211003 | 11 | 311 | 3.2 | 12.9 | 0.00 | 1.98 | 1.98 | 91 | 1007.9 |
| 20260505210803 | 11 | 29 | 3.2 | 12.9 | 0.00 | 1.98 | 1.98 | 91 | 1008.0 |
| 20260505210603 | 11 | 346 | 3.2 | 12.9 | 0.00 | 1.98 | 1.98 | 91 | 1008.1 |
| 20260505210402 | 11 | 36 | 3.2 | 12.9 | 0.00 | 1.98 | 1.98 | 91 | 1008.0 |
| 20260505210203 | 11 | 346 | 3.2 | 12.9 | 0.00 | 1.98 | 1.98 | 91 | 1008.1 |
| 20260505210003 | 11 | 355 | 3.2 | 12.9 | 0.00 | 1.98 | 1.98 | 91 | 1008.0 |
| 20260505205802 | 11 | 355 | 3.2 | 14.5 | 0.00 | 1.98 | 1.98 | 91 | 1008.0 |
| 20260505205603 | 11 | 33 | 4.8 | 14.5 | 0.00 | 1.98 | 1.98 | 91 | 1008.0 |
| 20260505205403 | 11 | 67 | 4.8 | 14.5 | 0.00 | 1.98 | 1.98 | 91 | 1008.0 |
| 20260505205203 | 11 | 0 | 4.8 | 14.5 | 0.00 | 1.98 | 1.98 | 91 | 1008.0 |
| 20260505205002 | 11 | 49 | 3.2 | 14.5 | 0.00 | 1.98 | 1.98 | 91 | 1008.0 |
| 20260505204802 | 11 | 74 | 3.2 | 9.7 | 0.00 | 1.98 | 1.98 | 91 | 1007.9 |
| 20260505204603 | 11 | 55 | 4.8 | 9.7 | 0.00 | 1.98 | 1.98 | 91 | 1007.9 |
| 20260505204403 | 11 | 40 | 4.8 | 14.5 | 0.00 | 1.98 | 1.98 | 91 | 1008.0 |
| 20260505204202 | 11 | 42 | 4.8 | 14.5 | 0.00 | 1.98 | 1.98 | 91 | 1008.0 |
| 20260505203959 | 11 | 40 | 4.8 | 14.5 | 0.00 | 1.98 | 1.98 | 91 | 1007.9 |
| 20260505203759 | 11 | 22 | 4.8 | 14.5 | 0.00 | 1.98 | 1.98 | 91 | 1007.9 |
| 20260505203601 | 11 | 333 | 3.2 | 14.5 | 0.00 | 1.98 | 1.98 | 91 | 1007.9 |
| 20260505203359 | 11 | 33 | 3.2 | 12.9 | 0.00 | 1.98 | 1.98 | 91 | 1008.0 |
| 20260505203159 | 11 | 60 | 3.2 | 12.9 | 0.00 | 1.98 | 1.98 | 91 | 1007.9 |
| 20260505203000 | 11 | 51 | 3.2 | 12.9 | 0.00 | 1.98 | 1.98 | 91 | 1008.0 |
| 20260505202754 | 11 | 11 | 4.8 | 12.9 | 0.00 | 1.98 | 1.98 | 91 | 1008.0 |
| 20260505202551 | 11 | 11 | 4.8 | 12.9 | 0.00 | 1.98 | 1.98 | 91 | 1008.0 |
| 20260505202352 | 11 | 32 | 4.8 | 14.5 | 0.00 | 1.98 | 1.98 | 91 | 1008.0 |
| 20260505202152 | 11 | 72 | 4.8 | 14.5 | 0.00 | 1.98 | 1.98 | 91 | 1008.1 |
| 20260505201951 | 11 | 49 | 4.8 | 14.5 | 0.00 | 1.98 | 1.98 | 91 | 1008.1 |
| 20260505201751 | 11 | 53 | 4.8 | 16.1 | 0.00 | 1.98 | 1.98 | 91 | 1008.0 |
| 20260505201550 | 11 | 46 | 6.4 | 16.1 | 0.00 | 1.98 | 1.98 | 91 | 1008.0 |
| 20260505201349 | 11 | 5 | 4.8 | 16.1 | 0.00 | 1.98 | 1.98 | 91 | 1008.0 |
| 20260505201149 | 11 | 30 | 4.8 | 16.1 | 0.00 | 1.98 | 1.98 | 91 | 1008.0 |
| 20260505200950 | 11 | 25 | 4.8 | 16.1 | 0.00 | 1.98 | 1.98 | 91 | 1008.0 |
| 20260505200749 | 11 | 34 | 4.8 | 16.1 | 0.00 | 1.98 | 1.98 | 91 | 1008.0 |
| 20260505200545 | 11 | 355 | 4.8 | 12.9 | 0.00 | 1.98 | 1.98 | 91 | 1008.0 |
| 20260505200346 | 11 | 84 | 4.8 | 12.9 | 0.00 | 1.98 | 1.98 | 91 | 1008.0 |
| 20260505200145 | 11 | 24 | 4.8 | 14.5 | 0.00 | 1.98 | 1.98 | 91 | 1007.9 |
| 20260505195944 | 11 | 103 | 4.8 | 14.5 | 0.00 | 1.98 | 1.98 | 91 | 1008.0 |
| 20260505195743 | 11 | 13 | 3.2 | 14.5 | 0.00 | 1.98 | 1.98 | 91 | 1007.9 |
| 20260505195543 | 11 | 10 | 4.8 | 14.5 | 0.00 | 1.98 | 1.98 | 91 | 1008.0 |
| 20260505195344 | 11 | 34 | 4.8 | 14.5 | 0.00 | 1.98 | 1.98 | 91 | 1007.9 |
| 20260505195144 | 11 | 5 | 4.8 | 12.9 | 0.00 | 1.98 | 1.98 | 91 | 1007.9 |
| 20260505194943 | 11 | 53 | 4.8 | 12.9 | 0.00 | 1.98 | 1.98 | 91 | 1007.9 |
| 20260505194743 | 11 | 15 | 6.4 | 12.9 | 0.00 | 1.98 | 1.98 | 90 | 1007.9 |
| 20260505194543 | 11 | 70 | 6.4 | 14.5 | 0.00 | 1.98 | 1.98 | 90 | 1007.9 |
| 20260505194343 | 11 | 69 | 6.4 | 14.5 | 0.00 | 1.98 | 1.98 | 90 | 1007.8 |
| 20260505194143 | 11 | 22 | 6.4 | 14.5 | 0.00 | 1.98 | 1.98 | 90 | 1007.8 |
| 20260505193944 | 11 | 68 | 4.8 | 14.5 | 0.00 | 1.98 | 1.98 | 90 | 1007.9 |
| 20260505193743 | 11 | 122 | 4.8 | 14.5 | 0.00 | 1.98 | 1.98 | 90 | 1007.9 |
| 20260505193544 | 11 | 28 | 4.8 | 14.5 | 0.00 | 1.98 | 1.98 | 90 | 1007.9 |
| 20260505193343 | 12 | 0 | 4.8 | 16.1 | 0.00 | 1.98 | 1.98 | 90 | 1008.0 |
| 20260505193137 | 12 | 351 | 4.8 | 16.1 | 0.00 | 1.98 | 1.98 | 90 | 1007.9 |
| 20260505192938 | 12 | 39 | 4.8 | 16.1 | 0.00 | 1.98 | 1.98 | 90 | 1007.9 |
| 20260505192740 | 12 | 355 | 6.4 | 16.1 | 0.00 | 1.98 | 1.98 | 90 | 1008.0 |
| 20260505192537 | 12 | 52 | 6.4 | 16.1 | 0.00 | 1.98 | 1.98 | 90 | 1008.0 |
| 20260505192338 | 12 | 77 | 4.8 | 16.1 | 0.00 | 1.98 | 1.98 | 90 | 1008.0 |
| 20260505192137 | 12 | 355 | 6.4 | 16.1 | 0.00 | 1.98 | 1.98 | 90 | 1008.0 |
| 20260505191937 | 12 | 55 | 4.8 | 16.1 | 0.00 | 1.98 | 1.98 | 90 | 1007.9 |
| 20260505191737 | 12 | 49 | 4.8 | 16.1 | 0.00 | 1.98 | 1.98 | 90 | 1008.0 |
| 20260505191538 | 12 | 43 | 3.2 | 12.9 | 0.00 | 1.98 | 1.98 | 90 | 1007.9 |
| 20260505191340 | 12 | 0 | 4.8 | 12.9 | 0.00 | 1.98 | 1.98 | 90 | 1007.9 |
| 20260505191139 | 12 | 62 | 4.8 | 14.5 | 0.00 | 1.98 | 1.98 | 90 | 1007.9 |
| 20260505190938 | 12 | 35 | 4.8 | 14.5 | 0.00 | 1.98 | 1.98 | 90 | 1008.0 |
| 20260505190737 | 12 | 17 | 4.8 | 14.5 | 0.00 | 1.98 | 1.98 | 90 | 1007.9 |
| 20260505190534 | 12 | 83 | 4.8 | 14.5 | 0.00 | 1.98 | 1.98 | 90 | 1007.9 |
| 20260505190334 | 12 | 54 | 4.8 | 14.5 | 0.00 | 1.98 | 1.98 | 90 | 1007.9 |
| 20260505190132 | 12 | 26 | 3.2 | 14.5 | 0.00 | 1.98 | 1.98 | 89 | 1007.9 |
| 20260505185932 | 12 | 346 | 3.2 | 9.7 | 0.00 | 1.98 | 1.98 | 89 | 1007.9 |
| 20260505185732 | 12 | 55 | 3.2 | 12.9 | 0.00 | 1.98 | 1.98 | 89 | 1007.8 |
| 20260505185532 | 12 | 34 | 3.2 | 12.9 | 0.00 | 1.98 | 1.98 | 89 | 1007.8 |
| 20260505185335 | 12 | 34 | 3.2 | 12.9 | 0.00 | 1.98 | 1.98 | 89 | 1007.8 |
| 20260505185133 | 12 | 20 | 3.2 | 12.9 | 0.00 | 1.98 | 1.98 | 89 | 1007.8 |
| 20260505184933 | 12 | 5 | 4.8 | 12.9 | 0.00 | 1.98 | 1.98 | 89 | 1007.9 |
| 20260505184731 | 12 | 21 | 3.2 | 12.9 | 0.00 | 1.98 | 1.98 | 89 | 1007.8 |
| 20260505184532 | 12 | 51 | 4.8 | 12.9 | 0.00 | 1.98 | 1.98 | 89 | 1007.8 |
| 20260505184333 | 12 | 77 | 4.8 | 14.5 | 0.00 | 1.98 | 1.98 | 89 | 1007.7 |
| 20260505184132 | 12 | 348 | 4.8 | 14.5 | 0.00 | 1.98 | 1.98 | 89 | 1007.8 |
| 20260505183932 | 12 | 58 | 4.8 | 14.5 | 0.00 | 1.98 | 1.98 | 89 | 1007.7 |
| 20260505183732 | 12 | 14 | 4.8 | 14.5 | 0.00 | 1.98 | 1.98 | 89 | 1007.7 |
| 20260505183532 | 12 | 60 | 4.8 | 14.5 | 0.00 | 1.98 | 1.98 | 89 | 1007.7 |
| 20260505183333 | 12 | 44 | 3.2 | 12.9 | 0.00 | 1.98 | 1.98 | 89 | 1007.7 |
| 20260505183132 | 12 | 13 | 3.2 | 9.7 | 0.00 | 1.98 | 1.98 | 89 | 1007.8 |
| 20260505182931 | 12 | 47 | 3.2 | 9.7 | 0.00 | 1.98 | 1.98 | 88 | 1007.7 |
| 20260505182732 | 13 | 107 | 3.2 | 8.0 | 0.00 | 1.98 | 1.98 | 88 | 1007.7 |
| 20260505182533 | 13 | 68 | 3.2 | 12.9 | 0.00 | 1.98 | 1.98 | 88 | 1007.7 |
| 20260505182333 | 13 | 48 | 3.2 | 12.9 | 0.00 | 1.98 | 1.98 | 88 | 1007.7 |
| 20260505182131 | 13 | 67 | 3.2 | 12.9 | 0.00 | 1.98 | 1.98 | 88 | 1007.7 |
| 20260505181932 | 13 | 67 | 4.8 | 14.5 | 0.00 | 1.98 | 1.98 | 88 | 1007.7 |
| 20260505181732 | 13 | 29 | 4.8 | 14.5 | 0.00 | 1.98 | 1.98 | 88 | 1007.7 |
| 20260505181531 | 13 | 51 | 4.8 | 14.5 | 0.00 | 1.98 | 1.98 | 88 | 1007.7 |
| 20260505181333 | 13 | 32 | 4.8 | 16.1 | 0.00 | 1.98 | 1.98 | 88 | 1007.7 |
| 20260505181132 | 13 | 66 | 4.8 | 16.1 | 0.00 | 1.98 | 1.98 | 88 | 1007.6 |
| 20260505180934 | 13 | 21 | 4.8 | 16.1 | 0.00 | 1.98 | 1.98 | 87 | 1007.7 |
| 20260505180732 | 13 | 64 | 6.4 | 16.1 | 0.00 | 1.98 | 1.98 | 87 | 1007.8 |
| 20260505180533 | 13 | 336 | 6.4 | 16.1 | 0.00 | 1.98 | 1.98 | 87 | 1007.7 |
| 20260505180333 | 13 | 74 | 4.8 | 16.1 | 0.00 | 1.98 | 1.98 | 87 | 1007.6 |
| 20260505180132 | 13 | 26 | 4.8 | 16.1 | 0.00 | 1.98 | 1.98 | 87 | 1007.7 |
| 20260505175934 | 13 | 54 | 4.8 | 11.3 | 0.00 | 1.98 | 1.98 | 87 | 1007.5 |
| 20260505175731 | 13 | 324 | 4.8 | 11.3 | 0.00 | 1.98 | 1.98 | 87 | 1007.6 |
| 20260505175531 | 13 | 101 | 4.8 | 11.3 | 0.00 | 1.98 | 1.98 | 87 | 1007.6 |
| 20260505175332 | 13 | 0 | 4.8 | 9.7 | 0.00 | 1.98 | 1.98 | 87 | 1007.6 |
| 20260505175132 | 13 | 69 | 4.8 | 16.1 | 0.00 | 1.98 | 1.98 | 87 | 1007.6 |
| 20260505174932 | 13 | 16 | 4.8 | 16.1 | 0.00 | 1.98 | 1.98 | 87 | 1007.6 |
| 20260505174731 | 13 | 350 | 4.8 | 16.1 | 0.00 | 1.98 | 1.98 | 86 | 1007.7 |
| 20260505174533 | 13 | 48 | 4.8 | 16.1 | 0.00 | 1.98 | 1.98 | 86 | 1007.6 |
| 20260505174331 | 14 | 62 | 4.8 | 16.1 | 0.00 | 1.98 | 1.98 | 86 | 1007.6 |
| 20260505174133 | 14 | 86 | 4.8 | 16.1 | 0.00 | 1.98 | 1.98 | 86 | 1007.7 |
| 20260505173931 | 14 | 61 | 4.8 | 16.1 | 0.00 | 1.98 | 1.98 | 86 | 1007.6 |
| 20260505173731 | 14 | 15 | 4.8 | 16.1 | 0.00 | 1.98 | 1.98 | 86 | 1007.6 |
| 20260505173532 | 14 | 44 | 4.8 | 16.1 | 0.00 | 1.98 | 1.98 | 85 | 1007.6 |
| 20260505173331 | 14 | 56 | 4.8 | 16.1 | 0.00 | 1.98 | 1.98 | 85 | 1007.6 |
| 20260505173131 | 15 | 64 | 4.8 | 16.1 | 0.00 | 1.98 | 1.98 | 85 | 1007.6 |
| 20260505172932 | 15 | 24 | 4.8 | 16.1 | 0.00 | 1.98 | 1.98 | 85 | 1007.6 |
| 20260505172732 | 15 | 5 | 4.8 | 16.1 | 0.00 | 1.98 | 1.98 | 85 | 1007.5 |
| 20260505172532 | 15 | 346 | 4.8 | 16.1 | 0.00 | 1.98 | 1.98 | 85 | 1007.6 |
| 20260505172332 | 15 | 348 | 3.2 | 9.7 | 0.00 | 1.98 | 1.98 | 85 | 1007.5 |
| 20260505172132 | 15 | 49 | 3.2 | 9.7 | 0.00 | 1.98 | 1.98 | 85 | 1007.5 |
| 20260505171932 | 15 | 73 | 3.2 | 9.7 | 0.00 | 1.98 | 1.98 | 85 | 1007.5 |
| 20260505171732 | 15 | 30 | 4.8 | 9.7 | 0.00 | 1.98 | 1.98 | 85 | 1007.5 |
| 20260505171531 | 15 | 20 | 4.8 | 12.9 | 0.00 | 1.98 | 1.98 | 84 | 1007.6 |
| 20260505171332 | 15 | 26 | 4.8 | 12.9 | 0.00 | 1.98 | 1.98 | 84 | 1007.6 |
| 20260505171132 | 15 | 68 | 4.8 | 12.9 | 0.00 | 1.98 | 1.98 | 84 | 1007.6 |
| 20260505170931 | 15 | 344 | 4.8 | 12.9 | 0.00 | 1.98 | 1.98 | 84 | 1007.6 |
| 20260505170731 | 15 | 19 | 4.8 | 12.9 | 0.00 | 1.98 | 1.98 | 84 | 1007.7 |
| 20260505170531 | 15 | 309 | 3.2 | 12.9 | 0.00 | 1.98 | 1.98 | 85 | 1007.6 |
| 20260505170332 | 15 | 26 | 3.2 | 8.0 | 0.00 | 1.98 | 1.98 | 85 | 1007.5 |
| 20260505170132 | 15 | 0 | 4.8 | 11.3 | 0.00 | 1.98 | 1.98 | 85 | 1007.6 |
| 20260505165931 | 15 | 355 | 4.8 | 12.9 | 0.00 | 1.98 | 1.98 | 85 | 1007.6 |
| 20260505165731 | 15 | 44 | 4.8 | 12.9 | 0.00 | 1.98 | 1.98 | 85 | 1007.7 |
| 20260505165532 | 15 | 26 | 4.8 | 12.9 | 0.00 | 1.98 | 1.98 | 85 | 1007.7 |
| 20260505165332 | 15 | 355 | 4.8 | 12.9 | 0.00 | 1.98 | 1.98 | 85 | 1007.6 |
| 20260505165132 | 15 | 16 | 4.8 | 12.9 | 0.00 | 1.98 | 1.98 | 85 | 1007.6 |
| 20260505164930 | 15 | 35 | 4.8 | 12.9 | 0.00 | 1.98 | 1.98 | 85 | 1007.6 |
| 20260505164731 | 15 | 33 | 4.8 | 12.9 | 0.00 | 1.98 | 1.98 | 85 | 1007.6 |
| 20260505164530 | 15 | 9 | 4.8 | 12.9 | 0.00 | 1.98 | 1.98 | 84 | 1007.5 |
| 20260505164331 | 15 | 355 | 4.8 | 16.1 | 0.00 | 1.98 | 1.98 | 84 | 1007.5 |
| 20260505164130 | 15 | 346 | 4.8 | 16.1 | 0.00 | 1.98 | 1.98 | 84 | 1007.6 |
| 20260505163930 | 15 | 55 | 4.8 | 16.1 | 0.00 | 1.98 | 1.98 | 84 | 1007.6 |
| 20260505163730 | 15 | 25 | 6.4 | 17.7 | 0.00 | 1.98 | 1.98 | 84 | 1007.6 |
| 20260505163530 | 15 | 22 | 6.4 | 17.7 | 0.00 | 1.98 | 1.98 | 84 | 1007.6 |
| 20260505163330 | 15 | 46 | 4.8 | 17.7 | 0.00 | 1.98 | 1.98 | 84 | 1007.6 |
| 20260505163130 | 15 | 37 | 6.4 | 17.7 | 0.00 | 1.98 | 1.98 | 84 | 1007.7 |
| 20260505162931 | 15 | 339 | 4.8 | 17.7 | 0.00 | 1.98 | 1.98 | 84 | 1007.7 |
| 20260505162731 | 15 | 355 | 4.8 | 17.7 | 0.00 | 1.98 | 1.98 | 84 | 1007.7 |
| 20260505162530 | 15 | 97 | 4.8 | 17.7 | 0.00 | 1.98 | 1.98 | 84 | 1007.7 |
| 20260505162331 | 15 | 0 | 6.4 | 17.7 | 0.00 | 1.98 | 1.98 | 84 | 1007.7 |
| 20260505162130 | 15 | 32 | 6.4 | 20.9 | 0.00 | 1.98 | 1.98 | 83 | 1007.7 |
| 20260505161930 | 16 | 28 | 6.4 | 20.9 | 0.00 | 1.98 | 1.98 | 83 | 1007.7 |
| 20260505161730 | 16 | 49 | 4.8 | 20.9 | 0.00 | 1.98 | 1.98 | 83 | 1007.7 |
| 20260505161531 | 16 | 355 | 4.8 | 20.9 | 0.00 | 1.98 | 1.98 | 83 | 1007.7 |
| 20260505161329 | 16 | 355 | 4.8 | 20.9 | 0.00 | 1.98 | 1.98 | 83 | 1007.7 |
| 20260505161129 | 16 | 36 | 4.8 | 19.3 | 0.00 | 1.98 | 1.98 | 83 | 1007.7 |
| 20260505160929 | 16 | 0 | 3.2 | 14.5 | 0.00 | 1.98 | 1.98 | 83 | 1007.7 |
| 20260505160729 | 16 | 342 | 3.2 | 9.7 | 0.00 | 1.98 | 1.98 | 83 | 1007.6 |
| 20260505160529 | 16 | 47 | 3.2 | 9.7 | 0.00 | 1.98 | 1.98 | 83 | 1007.7 |
| 20260505160329 | 16 | 335 | 3.2 | 9.7 | 0.00 | 1.98 | 1.98 | 83 | 1007.8 |
| 20260505160129 | 16 | 20 | 3.2 | 11.3 | 0.00 | 1.98 | 1.98 | 83 | 1007.9 |
| 20260505153325 | 17 | 342 | 3.2 | 6.4 | 0.00 | 1.98 | 1.98 | 81 | 1007.9 |
| 20260505153125 | 16 | 324 | 3.2 | 8.0 | 0.00 | 1.98 | 1.98 | 81 | 1007.8 |
| 20260505152925 | 16 | 346 | 3.2 | 8.0 | 0.00 | 1.98 | 1.98 | 81 | 1007.8 |
| 20260505152723 | 16 | 16 | 3.2 | 8.0 | 0.00 | 1.98 | 1.98 | 81 | 1007.8 |
| 20260505152522 | 16 | 18 | 4.8 | 11.3 | 0.00 | 1.98 | 1.98 | 81 | 1007.8 |
| 20260505152321 | 16 | 44 | 4.8 | 11.3 | 0.00 | 1.98 | 1.98 | 80 | 1007.7 |
| 20260505152121 | 16 | 19 | 4.8 | 11.3 | 0.00 | 1.98 | 1.98 | 81 | 1007.7 |
| 20260505151921 | 16 | 0 | 4.8 | 16.1 | 0.00 | 1.98 | 1.98 | 81 | 1007.7 |
| 20260505151720 | 16 | 5 | 4.8 | 16.1 | 0.00 | 1.98 | 1.98 | 80 | 1007.7 |
| 20260505151518 | 16 | 38 | 4.8 | 16.1 | 0.00 | 1.98 | 1.98 | 81 | 1007.7 |
| 20260505151317 | 17 | 45 | 4.8 | 16.1 | 0.00 | 1.98 | 1.98 | 80 | 1007.8 |
| 20260505151117 | 17 | 51 | 4.8 | 16.1 | 0.00 | 1.98 | 1.98 | 80 | 1007.7 |
| 20260505150917 | 17 | 60 | 3.2 | 9.7 | 0.00 | 1.98 | 1.98 | 81 | 1007.8 |
| 20260505150717 | 17 | 20 | 1.6 | 6.4 | 0.00 | 1.98 | 1.98 | 80 | 1007.8 |
| 20260505150517 | 17 | 295 | 1.6 | 6.4 | 0.00 | 1.98 | 1.98 | 80 | 1007.8 |
| 20260505150315 | 17 | 294 | 1.6 | 6.4 | 0.00 | 1.98 | 1.98 | 80 | 1007.9 |